loading
|

ATLAS AGENA B DEB, 630

Orbit data source: Space-Track

ATLAS AGENA B DEB, 630 is space debris originally from a launch on Fri, 19 Jul 1963 UTC launched from the Air Force Western Test Range (AFWTR). Debris objects in space refer to the collection of defunct objects orbiting the Earth. Examples of debris include non-operational satellites, rocket bodies, and fragments generated from explosions, collisions, or faulty payload assembly.

Loading next visibility...
Loading greatness...
ATLAS AGENA B DEB details
Identifier
630, 1963-030C
Orbit
Active
Last TLE update19 hours ago
Origin
Flag of USUSAF SSD (US)
ManufacturerUnknown
Mission statusUnknown
MissionUnknown
Bus & MotorUnknown
Mass~10 kg wet, ~10 kg dry
Launch date (UTC)
1963-07-19 (61 years ago)
Launch vehicleUnknown
Launch site
Air Force Western Test Range (AFWTR)
Object type
Payload
Rocket body
Debris
Radar Cross SectionMedium (>0.1 m² and <1 m²)

Expand to show TLE details & history

TLE from 19 hours ago
0 ATLAS AGENA B DEB
1   630U 63030C   24250.95518685 -.00000018  00000-0 -10103-1 0  9998
2   630  88.4027 238.6898 0040296 191.4456 168.5482  8.59857028919392
Epoch: 2024-09-06T22:55Z
Definitive object data (Epoch: 2024-09-06T22:55:28.143Z)
Latitude0.00002°
Longitude-91.69776°
Altitude3,728.123 km
Speed6.268 km/s
True Right ascension15h 54m 45s
True Declination0° 00' 00"
Sunlit
Object was in daylight at TLE epoch
Predictive object data (real-time)
Latitude-50.8046°
Longitude90.2108°
Altitude3,674.515 km
Speed6.308 km/s
Apparent Right ascension01h 22m 32s
Apparent Declination-57° 22' 34"
Sunlit
Object is in daylight
Predictive observer data (real-time)
Local Sidereal Time09:36:28
Azimuth224.654° SW
Elevation-50.224°
Doppler factor1
Orbital elements
Apogee3,724.551 km
Perigee3,643.458 km
Semi-major axis10,062.141 km
Eccentricity0.0040296
Inclination88.4027°
RAAN238.6898°
Arg. of periapsis191.4456°
True anomaly168.63943°
Mean anomaly168.5482°
Eccentric anomaly168.59386°
Mean motion2.15034 °/min
BSTAR-0.010103
Period167.42 mins
No data available

ATLAS AGENA B DEB Visibility forecast

Observer location: 39.9160978°, -105.1181434

ATLAS AGENA B DEB is not visible in the next 10 days
Span
Click to sort rows by Start time (UTC) header in descending order
Start Az.
Max El. time (UTC)
Max El. Az.
Max El.
End time (UTC)
End Az.